Regional Weather Roundup
Issued by NWS

Home | Current Version | Previous Version | Text Only | Print | Product List | Glossary On
Versions: 1 2 3 4 5 6 7 8 9 10 11 12 13 14 15 16 17 18 19 20 21 22 23 24 25 26 27 28 29 30 31 32 33 34 35 36 37 38 39 40 41 42 43 44 45 46 47 48 49 50
000
ASUS43 KTOP 241059
RWRKS

WEATHER ROUNDUP FOR KANSAS
NATIONAL WEATHER SERVICE GOODLAND KS
600 AM CDT TUE MAY 24 2016

NOTE:  "FAIR" INDICATES FEW OR NO CLOUDS BELOW 12,000 FEET WITH NO
SIGNIFICANT WEATHER AND/OR OBSTRUCTIONS TO VISIBILITY.

KSZ001>006-013>018-027>032-041>047-241200-
NORTHWEST KANSAS

CITY           SKY/WX    TMP DP  RH WIND       PRES   REMARKS
GOODLAND       CLOUDY    55  44  66 NE14      29.87R
HAYS           CLOUDY    57  48  72 E18       29.87F
HILL CITY      CLOUDY    59  57  93 SE12      29.85S
RUSSELL        TSTM      57  56  96 E18G24    29.91S FOG
$$

KSZ061>065-074>080-084>089-241200-
SOUTHWEST KANSAS

CITY           SKY/WX    TMP DP  RH WIND       PRES   REMARKS
DODGE CITY     CLEAR     64  64 100 S7        29.80R
ELKHART          N/A     62  60  93 SW7         N/A
GARDEN CITY    CLEAR     61  59  93 SE9       29.79R
GREAT BEND     CLOUDY    68  61  77 E9        29.87R
LIBERAL        CLOUDY    64  57  77 S7        29.79S
$$

KSZ066>073-081>083-090>101-241200-
SOUTHEAST KANSAS

CITY           SKY/WX    TMP DP  RH WIND       PRES   REMARKS
CHANUTE        CLOUDY    67  63  87 SE7       29.89R
COFFEYVILLE    CLOUDY    68  64  87 SE7       29.87R
HUTCHINSON     CLOUDY    69  67  93 NE8       29.88R FOG
MEDICINE LODGE   N/A     70  67  90 SE6       29.79R
NEWTON         CLOUDY    66  63  88 NE9       29.91R
PARSONS        CLOUDY    68  64  87 VRB3      29.89R
WICHITA INTL   CLOUDY    70  67  90 E8        29.85R
WICHITA JABRA  CLOUDY    66  66 100 NE9       29.86R
WICHITA MCCONL CLOUDY    68  66  93 E8        29.85R
WINFIELD       CLOUDY    69  67  93 SE8       29.83R
$$

KSZ007>012-019>026-033>040-048>060-102>105-241200-
NORTHEAST KANSAS

CITY           SKY/WX    TMP DP  RH WIND       PRES   REMARKS
CONCORDIA      TSTM      60  57  89 S10       29.88F
EMPORIA        RAIN      62  59  90 N20G28    29.94R
LAWRENCE       TSTM      62  61  96 N7        29.94R VSB 1
MANHATTAN      CLOUDY    62  58  86 SW5       29.89R
OLATHE IND     MOCLDY    63  62  97 S6        29.90F
OLATHE EXE     CLOUDY    62  60  93 S8        29.90S
SALINA         CLOUDY    64  60  87 E12       29.87F
TOPEKA BILLARD LGT RAIN  61  58  90 E7        29.88F
TOPEKA FORBES  LGT RAIN  61  59  93 E7        29.90F
$$




USA.gov is the U.S. government's official web portal to all federal, state and local government web resources and services.